Location: Marcé
(47.5801°N, 0.3280°W)
Time: 08:32:53
(UTC+01:00)

Vanguard 1 - Pass Details

Date: 02 December 2021
Orbit: 652 x 3830 km, 34.2° (Epoch: 16 January)

Event Time Altitude Azimuth Distance (km) Brightness Sun altitude
Rises 22:47:20 0° 196° (SSW) 6,929 14.3 -54.5°
Enters shadow 22:49:26 - 192° (SSW) 6,673 14.1 -54.8°
Exits shadow 23:31:09 - 81° (E) 7,385 14.4 -59.9°
Sets 23:31:14 0° 81° (E) 7,395 14.4 -59.9°
